sat.trackr.live / text

‹ back to catalog

STARLINK-2605

NORAD 48392 · 2021-038AR

PAYLOAD ACTIVE UNKNOWN

§ Identity

Operator
Country
US
Launch date
2021-05-04
Launch site
AFETR
Launch vehicle
Mass (kg)
RCS (m²)

Purposes: comms

External: N2YO · Heavens-Above · Gunter

§ Orbital elements

Epoch: 2026-09-19T05:02:54.623616Z

Period
94.01 min
Inclination
53.1606°
Eccentricity
0.0001393
Mean motion
15.31699872 rev/d
Perigee alt
469.8 km
Apogee alt
471.7 km
Semi-major
6,848.9 km
B*
-4.3621e-6
RAAN
151.9415°
Arg perigee
77.2585°
Mean anomaly
282.8572°
Rev number
29,831

§ Raw data

STARLINK-26051 48392U 21038AR  26262.21035444 -.00000501  00000+0 -43621-5 0  99992 48392  53.1606 151.9415 0001393  77.2585 282.8572 15.31699872298313

JSON: /api/v1/satellites/48392 · /tle

For live sub-satellite position, see the globe view (requires WebGL).

§ Visibility from observer

Set your observer location to see the next 7 days of passes ≥ 10°. The values pass through the URL so the page stays shareable.

No JS? Fill the form by hand. The geolocation button needs JavaScript.